Find Starlink 32323

NORAD ID: 61677 Int'l Des: 2024-193 Owner: SPXS Country: US Constellation: starlink operational
LEOCIRCULAR

Current View

Loading 3D Globe...

About Starlink 32323

Starlink 32323 (NORAD 61677) is a starlink constellation satellite (v2 mini) launched Oct 26, 2024 by SPXS of US. It operates in LEO, CIRCULAR orbit with a mass of 730.00 kg.

About Starlink 32323

Description loading...

Upcoming Passes

Passes for default location (London). Set your location on the main map for personalized predictions.

Altitude History

Loading altitude history...

Two-Line Element Set

1 61677U 24193S 26168.88955692 .00001364 00000-0 51506-4 0 9996
2 61677 53.1611 343.7474 0001177 80.5393 279.5743 15.34393960 91899
Epoch: Jun 17, 2026 • Age: 7 hours

Current Status

Altitude 465.5 km
Velocity 7.63 km/s
Sub-Earth Point -9.17°S, 163.65°W
Launch Date Oct 26, 2024
Age 1.6 years
Type internet

Technical Details

Classification Payload
Mass 730.00 kg
Dry Mass 700.00 kg
Total Mass 730.00 kg
Length 0.30 m
Diameter 4.10 m
Span 29.00 m
Shape Box + pan
Manufacturer SPXS
Bus Type Starlink V2M
Phase Status In Orbit
Owner/State SPXS/US

Most Searched